TimeMST,TemperatureF,Dew PointF,Humidity,Sea Level PressureIn,VisibilityMPH,Wind Direction,Wind SpeedMPH,Gust SpeedMPH,PrecipitationIn,Events,Conditions,WindDirDegrees,DateUTC
12:53 AM,37.0,30.9,79,30.02,10.0,North,3.5,-,N/A,,Overcast,360,2012-11-18 07:53:00
1:53 AM,42.1,30.9,65,30.01,10.0,SW,4.6,-,N/A,,Mostly Cloudy,220,2012-11-18 08:53:00
2:53 AM,39.0,30.9,73,30.02,10.0,Variable,4.6,-,N/A,,Overcast,0,2012-11-18 09:53:00
3:53 AM,36.0,30.0,79,30.00,10.0,Calm,Calm,-,N/A,,Mostly Cloudy,0,2012-11-18 10:53:00
4:53 AM,36.0,30.9,82,30.04,10.0,Calm,Calm,-,N/A,,Mostly Cloudy,0,2012-11-18 11:53:00
5:53 AM,37.9,30.9,76,30.04,10.0,Calm,Calm,-,N/A,,Overcast,0,2012-11-18 12:53:00
6:53 AM,37.0,30.9,79,30.05,10.0,Calm,Calm,-,N/A,,Overcast,0,2012-11-18 13:53:00
7:53 AM,36.0,30.9,82,30.06,10.0,Calm,Calm,-,N/A,,Mostly Cloudy,0,2012-11-18 14:53:00
8:53 AM,39.9,33.1,77,30.08,10.0,East,3.5,-,N/A,,Partly Cloudy,90,2012-11-18 15:53:00
9:41 AM,48.2,33.8,58,30.08,10.0,SSW,13.8,-,N/A,,Clear,210,2012-11-18 16:41:00
9:53 AM,50.0,33.1,52,30.03,10.0,SW,17.3,21.9,N/A,,Clear,230,2012-11-18 16:53:00
10:53 AM,52.0,32.0,47,30.03,10.0,SW,18.4,-,N/A,,Mostly Cloudy,230,2012-11-18 17:53:00
11:53 AM,54.0,32.0,43,30.01,10.0,SW,13.8,23.0,N/A,,Overcast,230,2012-11-18 18:53:00
12:53 PM,50.0,30.9,48,30.01,10.0,West,17.3,20.7,N/A,,Mostly Cloudy,260,2012-11-18 19:53:00
1:53 PM,51.1,30.9,46,29.98,10.0,WSW,17.3,26.5,0.00,,Overcast,250,2012-11-18 20:53:00
2:53 PM,52.0,30.9,45,30.00,10.0,WSW,15.0,23.0,N/A,,Overcast,250,2012-11-18 21:53:00
3:53 PM,48.9,32.0,52,30.04,10.0,WSW,10.4,-,N/A,,Mostly Cloudy,250,2012-11-18 22:53:00
4:53 PM,48.0,30.0,50,30.06,10.0,WSW,9.2,-,N/A,,Overcast,250,2012-11-18 23:53:00
5:53 PM,42.1,28.0,58,30.11,10.0,WSW,6.9,-,N/A,,Partly Cloudy,250,2012-11-19 00:53:00
6:53 PM,39.9,28.9,65,30.14,10.0,North,4.6,-,N/A,,Clear,350,2012-11-19 01:53:00
7:53 PM,35.1,28.0,76,30.17,10.0,Calm,Calm,-,N/A,,Clear,0,2012-11-19 02:53:00
8:53 PM,36.0,28.9,76,30.17,10.0,Calm,Calm,-,N/A,,Clear,0,2012-11-19 03:53:00
9:53 PM,32.0,27.0,82,30.15,10.0,Calm,Calm,-,N/A,,Clear,0,2012-11-19 04:53:00
10:53 PM,32.0,28.0,85,30.17,10.0,Calm,Calm,-,N/A,,Clear,0,2012-11-19 05:53:00
11:53 PM,30.0,27.0,88,30.19,10.0,ESE,3.5,-,N/A,,Scattered Clouds,110,2012-11-19 06:53:00